TimeEST,TemperatureF,Dew PointF,Humidity,Sea Level PressureIn,VisibilityMPH,Wind Direction,Wind SpeedMPH,Gust SpeedMPH,PrecipitationIn,Events,Conditions,WindDirDegrees,DateUTC
12:52 AM,33.1,21.9,64,30.31,10.0,Calm,Calm,-,N/A,,Overcast,0,2013-02-23 05:52:00
1:52 AM,33.1,23.0,66,30.30,10.0,Calm,Calm,-,N/A,,Overcast,0,2013-02-23 06:52:00
2:52 AM,33.1,23.0,66,30.28,10.0,Calm,Calm,-,N/A,,Overcast,0,2013-02-23 07:52:00
3:52 AM,33.1,24.1,70,30.26,10.0,Calm,Calm,-,N/A,,Overcast,0,2013-02-23 08:52:00
4:52 AM,33.1,24.1,70,30.25,10.0,Calm,Calm,-,N/A,,Overcast,0,2013-02-23 09:52:00
5:52 AM,33.1,25.0,72,30.23,10.0,Calm,Calm,-,N/A,,Overcast,0,2013-02-23 10:52:00
6:05 AM,33.8,24.8,70,30.22,10.0,East,3.5,-,N/A,,Overcast,80,2013-02-23 11:05:00
6:52 AM,33.1,25.0,72,30.24,10.0,Variable,3.5,-,N/A,,Overcast,0,2013-02-23 11:52:00
7:00 AM,33.8,24.8,70,30.23,10.0,Variable,3.5,-,N/A,,Overcast,0,2013-02-23 12:00:00
7:33 AM,33.8,26.6,75,30.22,10.0,Calm,Calm,-,N/A,,Overcast,0,2013-02-23 12:33:00
7:52 AM,34.0,26.1,73,30.23,10.0,Calm,Calm,-,N/A,,Overcast,0,2013-02-23 12:52:00
8:52 AM,35.1,27.0,72,30.21,10.0,ENE,3.5,-,N/A,,Overcast,70,2013-02-23 13:52:00
9:52 AM,36.0,30.0,79,30.20,6.0,Calm,Calm,-,N/A,,Haze,0,2013-02-23 14:52:00
10:32 AM,35.6,30.2,81,30.17,5.0,Variable,3.5,-,N/A,,Haze,0,2013-02-23 15:32:00
10:52 AM,36.0,30.9,82,30.17,4.0,Variable,4.6,-,N/A,,Haze,0,2013-02-23 15:52:00
11:52 AM,37.0,30.9,79,30.14,10.0,ESE,8.1,-,N/A,,Overcast,110,2013-02-23 16:52:00
12:52 PM,37.0,30.0,76,30.12,10.0,ESE,6.9,-,N/A,,Overcast,120,2013-02-23 17:52:00
1:16 PM,37.4,30.2,75,30.11,10.0,Calm,Calm,-,0.00,,Overcast,0,2013-02-23 18:16:00
1:52 PM,37.0,30.9,79,30.11,7.0,Variable,3.5,-,0.00,,Overcast,0,2013-02-23 18:52:00
2:52 PM,37.9,30.0,73,30.09,5.0,SE,6.9,-,0.00,Snow,Light Snow,140,2013-02-23 19:52:00
3:52 PM,36.0,30.9,82,30.07,9.0,Calm,Calm,-,0.00,Rain,Light Rain,0,2013-02-23 20:52:00
4:12 PM,35.6,30.2,81,30.05,5.0,East,4.6,-,0.00,Rain,Light Rain,90,2013-02-23 21:12:00
4:32 PM,35.6,30.2,81,30.05,2.5,East,3.5,-,0.01,Snow,Light Snow,80,2013-02-23 21:32:00
4:40 PM,35.6,30.2,81,30.04,5.0,ENE,5.8,-,0.01,Snow,Light Snow,70,2013-02-23 21:40:00
4:52 PM,35.1,30.9,85,30.05,10.0,ENE,4.6,-,0.02,Rain,Light Rain,70,2013-02-23 21:52:00
5:52 PM,34.0,30.0,85,30.04,6.0,East,3.5,-,0.03,Rain,Light Rain,80,2013-02-23 22:52:00
6:52 PM,34.0,30.0,85,30.01,5.0,ENE,3.5,-,0.07,Rain,Rain,70,2013-02-23 23:52:00
7:52 PM,34.0,30.0,85,29.99,5.0,NE,4.6,-,0.10,Rain,Light Rain,40,2013-02-24 00:52:00
8:52 PM,34.0,30.9,89,29.97,4.0,NE,4.6,-,0.08,Rain,Light Rain,40,2013-02-24 01:52:00
9:52 PM,35.1,30.9,85,29.92,7.0,ENE,5.8,-,0.01,,Overcast,70,2013-02-24 02:52:00
10:52 PM,34.0,32.0,92,29.89,3.0,North,4.6,-,0.00,Rain,Light Rain,10,2013-02-24 03:52:00
11:52 PM,34.0,30.9,89,29.86,4.0,NNE,6.9,-,0.01,,Overcast,30,2013-02-24 04:52:00